Bloomington, IL

12:05 PM CDT on April 27, 2017 (GMT -0500)
Central Ill Regional

Weather History for KBMI - January, 2013

Change the Weather History Date:

Thursday, January 17, 2013

  Actual Average Record
Temperature  
Mean Temperature 28 °F -  
Max Temperature 35 °F 18 °F 53 °F (2012)
Min Temperature 21 °F 3 °F -21 °F (1977)
Degree Days  
Heating Degree Days 37    
Moisture  
Dew Point 23 °F    
Average Humidity 77    
Maximum Humidity 93    
Minimum Humidity 55    
Precipitation  
Precipitation 0.00 in - - ()
Sea Level Pressure  
Sea Level Pressure 30.32 in    
Wind  
Wind Speed 11 mph (NW)    
Max Wind Speed 21 mph    
Max Gust Speed -    
Visibility 10 miles    
Events      
Averages and records for this station are not official NWS values.
T = Trace of Precipitation, MM = Missing Value Source: NWS Daily Summary

Daily Weather History Graph

Daily Weather History Graph

Search for Another Location

Airport or City:

Trip Planner

Search our weather history database for the weather conditions in past years. The results will help you decide how hot, cold, wet, or windy it might be!

Date:

Astronomy

Jan. 17, 2013 Rise Set
Actual Time 7:15 AM CST 4:56 PM CST
Civil Twilight 6:46 AM CST 5:26 PM CST
Nautical Twilight 6:12 AM CST 5:59 PM CST
Astronomical Twilight 5:40 AM CST 6:32 PM CST
Moon 10:21 AM CST (1/17) 11:49 PM CST (1/17)
Length of Visible Light 10h 40m
Length of Day
9h 40m
Waxing Crescent, 38% of the Moon is Illuminated
Jan 17
Waxing Crescent
Jan 18
First Quarter
Jan 26
Full
Feb 3
Last Quarter
Feb 10
New

Hourly Weather History & Observations

Time (CST) Temp. Windchill Dew Point Humidity Pressure Visibility Wind Dir Wind Speed Gust Speed Precip Events Conditions
12:56 AM 34.0 °F 27.2 °F 28.0 °F 79% 30.15 in 10.0 mi WSW 8.1 mph - N/A   Overcast
1:03 AM 33.8 °F 26.4 °F 28.4 °F 81% 30.11 in 10.0 mi West 9.2 mph - N/A   Overcast
1:21 AM 35.6 °F 29.2 °F 26.6 °F 70% 30.12 in 10.0 mi West 8.1 mph - N/A   Overcast
1:56 AM 34.0 °F 27.2 °F 28.0 °F 79% 30.18 in 10.0 mi West 8.1 mph - N/A   Overcast
2:38 AM 32.0 °F 25.6 °F 28.4 °F 87% 30.13 in 10.0 mi West 6.9 mph - N/A   Overcast
2:56 AM 32.0 °F 24.8 °F 28.0 °F 85% 30.18 in 10.0 mi NW 8.1 mph - N/A   Overcast
3:56 AM 34.9 °F 25.7 °F 30.0 °F 82% 30.19 in 10.0 mi NNW 13.8 mph - N/A   Mostly Cloudy
4:09 AM 33.8 °F 24.3 °F 30.2 °F 87% 30.15 in 10.0 mi NNW 13.8 mph - N/A   Scattered Clouds
4:56 AM 32.9 °F 24.1 °F 30.0 °F 89% 30.22 in 9.0 mi North 11.5 mph - N/A   Clear
5:56 AM 32.0 °F 21.2 °F 29.1 °F 89% 30.25 in 10.0 mi North 16.1 mph - N/A   Scattered Clouds
6:39 AM 30.2 °F 19.3 °F 28.4 °F 93% 30.24 in 10.0 mi North 15.0 mph - N/A   Mostly Cloudy
6:48 AM 30.2 °F 19.8 °F 28.4 °F 93% 30.24 in 10.0 mi North 13.8 mph - N/A   Mostly Cloudy
6:56 AM 30.0 °F 19.5 °F 28.0 °F 92% 30.29 in 10.0 mi North 13.8 mph - N/A   Mostly Cloudy
7:07 AM 30.2 °F 19.8 °F 28.4 °F 93% 30.24 in 9.0 mi North 13.8 mph - N/A   Scattered Clouds
7:56 AM 29.1 °F 18.4 °F 25.2 °F 85% 30.32 in 10.0 mi NNE 13.8 mph - N/A   Clear
8:56 AM 29.1 °F 16.0 °F 22.1 °F 75% 30.35 in 10.0 mi North 20.7 mph - N/A   Clear
9:56 AM 30.0 °F 17.9 °F 22.1 °F 72% 30.37 in 10.0 mi North 18.4 mph - N/A   Clear
10:56 AM 31.1 °F 20.9 °F 21.0 °F 66% 30.37 in 10.0 mi North 13.8 mph - N/A   Clear
11:56 AM 32.0 °F 21.2 °F 19.0 °F 59% 30.38 in 10.0 mi NNW 16.1 mph - N/A   Clear
12:56 PM 32.9 °F 22.4 °F 19.0 °F 57% 30.36 in 10.0 mi NNW 16.1 mph - N/A   Clear
1:56 PM 32.9 °F 21.3 °F 18.1 °F 55% 30.36 in 10.0 mi NNW 19.6 mph - N/A   Clear
2:56 PM 32.9 °F 22.4 °F 19.0 °F 57% 30.38 in 10.0 mi NNW 16.1 mph - N/A   Clear
3:56 PM 32.0 °F 22.1 °F 18.1 °F 57% 30.40 in 10.0 mi NNW 13.8 mph - N/A   Clear
4:56 PM 29.1 °F 16.7 °F 18.1 °F 64% 30.42 in 10.0 mi NNW 18.4 mph - N/A   Clear
5:56 PM 27.1 °F 19.7 °F 18.1 °F 69% 30.45 in 10.0 mi NW 6.9 mph - N/A   Clear
6:56 PM 25.2 °F 18.3 °F 17.1 °F 71% 30.47 in 10.0 mi NW 5.8 mph - N/A   Clear
7:56 PM 25.2 °F 19.5 °F 17.1 °F 71% 30.48 in 10.0 mi NW 4.6 mph - N/A   Clear
8:56 PM 22.1 °F 17.4 °F 17.1 °F 81% 30.49 in 10.0 mi WSW 3.5 mph - N/A   Clear
9:56 PM 21.0 °F 14.6 °F 17.1 °F 85% 30.49 in 10.0 mi WSW 4.6 mph - N/A   Clear
10:56 PM 21.0 °F 14.6 °F 17.1 °F 85% 30.49 in 10.0 mi SW 4.6 mph - N/A   Clear
11:56 PM 21.0 °F 12.4 °F 17.1 °F 85% 30.50 in 10.0 mi WSW 6.9 mph - N/A   Clear